This demonstration page uses our WeatherBlox Daily Observations layout. Learn more.

38.80484, -77.04692

Hourly Observations for June 28, 2019

Temp ( °F °C ) Dew Point ( °F °C ) Humidity (%) Winds ( mph kmh ) Pressure ( in mb ) Visibility ( mi km ) Precip ( " mm )
12:52 am 00:52 Mostly Cloudy 74 23.3 67 19.4 79 79 NNW 8 13 30.15 1021 10 16.09344 0 0
1:52 am 01:52 Partly Cloudy 76 24.4 66 18.9 72 72 WNW 5 7 30.15 1021 10 16.09344 0 0
2:52 am 02:52 Partly Cloudy 76 24.4 66 18.9 72 72 WNW 3 6 30.15 1021 10 16.09344 0 0
3:52 am 03:52 Mostly Clear 75 23.9 66 18.9 74 74 Calm 30.12 1020 10 16.09344 0 0
5:52 am 05:52 Partly Cloudy 73 22.8 67 19.4 81 81 WSW 5 7 30.15 1021 10 16.09344 0 0
6:52 am 06:52 Partly Cloudy 76 24.4 67 19.4 74 74 Calm 30.15 1021 10 16.09344 0 0
7:52 am 07:52 Partly Cloudy 77 25 67 19.4 71 71 SSW 5 7 30.15 1021 10 16.09344 0 0
8:52 am 08:52 Mostly Cloudy 81 27.2 68 20 65 65 E 3 6 30.18 1022 10 16.09344 0 0
9:52 am 09:52 Partly Cloudy 85 29.4 68 20 57 57 NNW 8 13 30.18 1022 10 16.09344 0 0
10:52 am 10:52 Partly Cloudy 87 30.6 67 19.4 51 51 WNW 7 11 30.18 1022 10 16.09344 0 0
11:52 am 11:52 Partly Cloudy 90 32.2 68 20 48 48 VRB 3 6 30.15 1021 10 16.09344 0 0
12:52 pm 12:52 Partly Cloudy 89 31.7 68 20 50 50 ESE 5 7 30.15 1021 10 16.09344 0 0
1:52 pm 13:52 Partly Cloudy 91 32.8 67 19.4 45 45 SE 6 9 30.12 1020 10 16.09344 0 0
2:52 pm 14:52 Mostly Cloudy 91 32.8 70 21.1 50 50 SSE 6 9 30.12 1020 10 16.09344 0 0
3:52 pm 15:52 Mostly Cloudy 89 31.7 71 21.7 55 55 S 12 19 30.09 1019 10 16.09344 0 0
4:52 pm 16:52 Mostly Cloudy 92 33.3 67 19.4 44 44 W 15 24 30.09 1019 10 16.09344 0 0
5:19 pm 17:19 Mostly Cloudy with Thunderstorms 93 33.9 68 20 44 44 WSW 7 11 30.09 1019 10 16.09344 0 0
5:52 pm 17:52 Mostly Cloudy with Thunderstorms 83 28.3 66 18.9 57 57 ESE 21 33 30.09 1019 10 16.09344 0 0
6:20 pm 18:20 Mostly Cloudy 84 28.9 68 20 59 59 ESE 9 15 30.12 1020 10 16.09344 0 0
6:52 pm 18:52 Mostly Cloudy 83 28.3 69 20.6 63 63 S 3 6 30.09 1019 10 16.09344 0 0
7:38 pm 19:38 Mostly Cloudy with Nearby Thunderstorms 83 28.3 70 21.1 65 65 ENE 5 7 30.12 1020 10 16.09344 0.001 0.001
7:52 pm 19:52 Mostly Cloudy with Nearby Thunderstorms 83 28.3 70 21.1 65 65 SE 3 6 30.09 1019 10 16.09344 0.001 0.001
8:01 pm 20:01 Mostly Cloudy 83 28.3 70 21.1 65 65 SSE 3 6 30.12 1020 10 16.09344 0 0
8:36 pm 20:36 Mostly Cloudy with Nearby Thunderstorms 80 26.7 70 21.1 71 71 SSE 5 7 30.12 1020 10 16.09344 0 0
8:52 pm 20:52 Cloudy 80 26.7 70 21.1 71 71 SE 5 7 30.09 1019 10 16.09344 0 0
9:14 pm 21:14 Cloudy with Nearby Thunderstorms 81 27.2 70 21.1 69 69 Calm 30.12 1020 10 16.09344 0 0
9:40 pm 21:40 Cloudy 80 26.7 71 21.7 74 74 S 5 7 30.12 1020 10 16.09344 0 0
9:52 pm 21:52 Cloudy 80 26.7 71 21.7 74 74 SSE 5 7 30.12 1020 10 16.09344 0 0
10:52 pm 22:52 Cloudy with Light Rain 81 27.2 71 21.7 72 72 S 6 9 30.09 1019 10 16.09344 0.001 0.001
11:52 pm 23:52 Mostly Cloudy 80 26.7 66 18.9 62 62 W 6 9 30.09 1019 10 16.09344 0.001 0.001

Powered by AerisWeather